CW9792 Weather Reports


time (UTC)temp
C
wind
direction
speed
KPH
gust
KPH
rain 1hr
cm
rain 24hr
cm
rain mn
cm
humidity
%
barometer
mb
20260503175050 15 232 0.0 0.0 0.00 0.00 0.00 25 1019.9
20260503174551 15 250 0.0 0.0 0.00 0.00 0.00 25 1020.0
20260503174050 15 217 0.0 0.0 0.00 0.00 0.00 26 1020.1
20260503173553 15 233 0.0 1.6 0.00 0.00 0.00 25 1020.0
20260503173049 15 202 0.0 1.6 0.00 0.00 0.00 26 1020.1
20260503172548 15 254 0.0 11.3 0.00 0.00 0.00 25 1020.1
20260503172050 15 184 0.0 11.3 0.00 0.00 0.00 27 1020.2
20260503171608 15 198 0.0 0.0 0.00 0.00 0.00 28 1020.4
20260503171048 14 202 0.0 0.0 0.00 0.00 0.00 26 1020.6
20260503170547 15 213 0.0 0.0 0.00 0.00 0.00 25 1020.6
20260503150535 12 190 0.0 0.0 0.00 0.00 0.00 31 1021.8
20260503131012 8 192 0.0 0.0 0.00 0.00 0.00 54 1021.7
20260503130510 8 173 0.0 0.0 0.00 0.00 0.00 54 1021.7
20260503110552 1 181 0.0 0.0 0.00 0.00 0.00 69 1020.9
20260503081541 1 342 0.0 0.0 0.00 0.00 0.00 66 1020.6
20260503081039 1 342 0.0 0.0 0.00 0.00 0.00 66 1020.5
20260503080541 1 342 0.0 0.0 0.00 0.00 0.00 66 1020.5
20260503072536 1 342 0.0 0.0 0.00 0.00 0.00 65 1020.2
20260503072037 1 342 0.0 0.0 0.00 0.00 0.00 65 1020.3
20260503071552 1 342 0.0 0.0 0.00 0.00 0.00 64 1020.3
20260503071033 2 342 0.0 0.0 0.00 0.00 0.00 64 1020.2
20260503070532 2 342 0.0 0.0 0.00 0.00 0.00 64 1020.1
20260503055023 3 342 0.0 0.0 0.00 0.00 0.00 63 1020.5
20260503054528 3 342 0.0 0.0 0.00 0.00 0.00 63 1020.5
20260503054023 3 342 0.0 0.0 0.00 0.00 0.00 63 1020.5
20260503053522 3 342 0.0 0.0 0.00 0.00 0.00 63 1020.3
20260503053033 3 342 0.0 1.6 0.00 0.00 0.00 63 1020.3
20260503052521 3 342 0.0 1.6 0.00 0.00 0.00 63 1020.4
20260503052020 3 342 0.0 0.0 0.00 0.00 0.00 63 1020.4
20260503051522 4 342 0.0 0.0 0.00 0.00 0.00 63 1020.4
20260503051018 4 342 0.0 0.0 0.00 0.00 0.00 63 1020.4
20260503050520 4 342 0.0 0.0 0.00 0.00 0.00 63 1020.4
20260503050018 4 342 0.0 0.0 0.00 0.00 0.00 63 1020.4
20260503045517 4 342 0.0 0.0 0.00 0.00 0.00 63 1020.4
20260503045017 4 342 0.0 0.0 0.00 0.00 0.00 62 1020.4
20260503044533 4 342 0.0 0.0 0.00 0.00 0.00 62 1020.4
20260503044014 5 342 0.0 0.0 0.00 0.00 0.00 62 1020.3
20260503043513 5 342 0.0 0.0 0.00 0.00 0.00 62 1020.3
20260503043027 5 342 0.0 0.0 0.00 0.00 0.00 62 1020.2
20260503042513 5 342 0.0 0.0 0.00 0.00 0.00 62 1020.2
20260503042012 5 342 0.0 0.0 0.00 0.00 0.00 62 1020.2
20260503041511 5 342 0.0 0.0 0.00 0.00 0.00 62 1020.1
20260503041011 5 342 0.0 0.0 0.00 0.00 0.00 62 1020.1
20260503040509 5 342 0.0 0.0 0.00 0.00 0.00 62 1020.1
20260503040008 5 342 0.0 0.0 0.00 0.00 0.00 62 1020.1
20260503035508 5 342 0.0 0.0 0.00 0.00 0.00 61 1020.1
20260503035009 5 342 0.0 0.0 0.00 0.00 0.00 61 1020.0
20260503034507 6 342 0.0 0.0 0.00 0.00 0.00 60 1020.0
20260503034006 6 342 0.0 0.0 0.00 0.00 0.00 60 1020.0
20260503033510 6 342 0.0 0.0 0.00 0.00 0.00 60 1019.9
20260503033007 6 342 0.0 0.0 0.00 0.00 0.00 60 1020.0
20260503032506 6 342 0.0 0.0 0.00 0.00 0.00 60 1019.9
20260503032008 6 342 0.0 0.0 0.00 0.00 0.00 60 1019.9
20260503031505 6 342 0.0 0.0 0.00 0.00 0.00 59 1019.8
20260503031005 6 342 0.0 0.0 0.00 0.00 0.00 59 1019.8
20260503030504 6 342 0.0 0.0 0.00 0.00 0.00 59 1019.8
20260503030004 6 342 0.0 0.0 0.00 0.00 0.00 59 1019.7
20260503025503 7 342 0.0 0.0 0.00 0.00 0.00 59 1019.7
20260503025004 7 342 0.0 0.0 0.00 0.00 0.00 59 1019.6
20260503024502 7 342 0.0 0.0 0.00 0.00 0.00 59 1019.6
20260503024004 7 342 0.0 0.0 0.00 0.00 0.00 59 1019.6
20260503023503 7 342 0.0 0.0 0.00 0.00 0.00 59 1019.5
20260503023001 7 342 0.0 0.0 0.00 0.00 0.00 59 1019.5
20260503022501 7 342 0.0 0.0 0.00 0.00 0.00 59 1019.5
20260503022104 7 342 0.0 0.0 0.00 0.00 0.00 60 1019.4
20260503021603 7 342 0.0 0.0 0.00 0.00 0.00 60 1019.3
20260503021059 7 342 0.0 0.0 0.00 0.00 0.00 59 1019.3
20260503020559 7 342 0.0 0.0 0.00 0.00 0.00 59 1019.3
20260503020101 7 342 0.0 0.0 0.00 0.00 0.00 59 1019.2
20260503015557 7 342 0.0 0.0 0.00 0.00 0.00 59 1019.1
20260503015058 7 342 0.0 0.0 0.00 0.00 0.00 60 1019.1
20260503014558 7 342 0.0 0.0 0.00 0.00 0.00 60 1019.1
20260503014057 7 342 0.0 0.0 0.00 0.00 0.00 59 1019.0
20260503013559 7 342 0.0 0.0 0.00 0.00 0.00 59 1018.9
20260503013100 7 342 0.0 0.0 0.00 0.00 0.00 58 1018.8
20260503012557 8 342 0.0 0.0 0.00 0.00 0.00 58 1018.8
20260503012056 8 342 0.0 0.0 0.00 0.00 0.00 58 1018.7
20260503011620 8 342 0.0 0.0 0.00 0.00 0.00 57 1018.6
20260503011056 8 342 0.0 0.0 0.00 0.00 0.00 55 1018.6
20260503010556 8 342 0.0 0.0 0.00 0.00 0.00 55 1018.5
20260503010058 9 342 0.0 0.0 0.00 0.00 0.00 54 1018.5
20260503005559 9 342 0.0 0.0 0.00 0.00 0.00 54 1018.5
20260503005056 10 342 0.0 0.0 0.00 0.00 0.00 52 1018.4
20260503004555 10 342 0.0 0.0 0.00 0.00 0.00 50 1018.4
20260503004055 10 342 0.0 0.0 0.00 0.00 0.00 49 1018.4
20260503003555 10 342 0.0 0.0 0.00 0.00 0.00 50 1018.3
20260503003055 10 342 0.0 0.0 0.00 0.00 0.00 49 1018.4
20260503002555 11 342 0.0 0.0 0.00 0.00 0.00 48 1018.3
20260503002058 11 342 0.0 0.0 0.00 0.00 0.00 49 1018.3
20260503001555 11 342 0.0 0.0 0.00 0.00 0.00 47 1018.2
20260503001055 11 342 0.0 0.0 0.00 0.00 0.00 45 1018.1
20260503000555 11 342 0.0 0.0 0.00 0.00 0.00 45 1018.0
20260503000104 11 348 0.0 0.0 0.00 0.00 0.00 44 1017.9
20260502235557 11 348 0.0 0.0 0.00 0.00 0.00 44 1017.9
20260502235054 11 339 0.0 0.0 0.00 0.00 0.00 45 1017.9
20260502234602 11 355 0.0 0.0 0.00 0.00 0.00 45 1017.9
20260502234054 11 355 0.0 0.0 0.00 0.00 0.00 45 1017.8
20260502233554 11 351 0.0 0.0 0.00 0.00 0.00 45 1017.8
20260502233054 11 351 0.0 0.0 0.00 0.00 0.00 44 1017.7
20260502232553 11 355 0.0 0.0 0.00 0.00 0.00 44 1017.7
20260502232056 11 355 0.0 0.0 0.00 0.00 0.00 44 1017.7
20260502231553 11 5 0.0 0.0 0.00 0.00 0.00 43 1017.7
20260502231055 11 9 0.0 0.0 0.00 0.00 0.00 42 1017.7
20260502230553 11 15 0.0 0.0 0.00 0.00 0.00 42 1017.6
20260502230052 11 360 0.0 0.0 0.00 0.00 0.00 42 1017.7
20260502225554 11 9 0.0 0.0 0.00 0.00 0.00 43 1017.6
20260502225052 11 5 0.0 0.0 0.00 0.00 0.00 42 1017.7
20260502224552 11 355 0.0 0.0 0.00 0.00 0.00 43 1017.6
20260502224051 11 360 0.0 0.0 0.00 0.00 0.00 42 1017.6
20260502223551 11 360 0.0 0.0 0.00 0.00 0.00 41 1017.7
20260502223052 11 360 0.0 0.0 0.00 0.00 0.00 41 1017.7
20260502222552 12 355 0.0 0.0 0.00 0.00 0.00 40 1017.8
20260502222052 12 13 0.0 0.0 0.00 0.00 0.00 40 1017.7
20260502221607 12 13 0.0 0.0 0.00 0.00 0.00 39 1017.6
20260502221052 12 29 0.0 0.0 0.00 0.00 0.00 41 1017.6
20260502220550 12 15 0.0 0.0 0.00 0.00 0.00 39 1017.6
20260502220059 12 17 0.0 0.0 0.00 0.00 0.00 39 1017.5
20260502215550 12 10 0.0 0.0 0.00 0.00 0.00 40 1017.5
20260502215049 12 5 0.0 0.0 0.00 0.00 0.00 41 1017.4
20260502214550 12 23 0.0 0.0 0.00 0.00 0.00 40 1017.4
20260502214049 12 22 0.0 0.0 0.00 0.00 0.00 40 1017.4
20260502213553 12 29 0.0 0.0 0.00 0.00 0.00 41 1017.4
20260502213049 12 12 0.0 0.0 0.00 0.00 0.00 41 1017.4
20260502212549 12 28 0.0 0.0 0.00 0.00 0.00 40 1017.5
20260502212049 12 360 0.0 0.0 0.00 0.00 0.00 40 1017.4
20260502211549 12 348 0.0 0.0 0.00 0.00 0.00 41 1017.5
20260502211048 12 325 0.0 0.0 0.00 0.00 0.00 41 1017.4
20260502210547 12 11 0.0 0.0 0.00 0.00 0.00 40 1017.4
20260502210103 12 17 0.0 0.0 0.00 0.00 0.00 39 1017.4
20260502205547 12 351 0.0 0.0 0.00 0.00 0.00 37 1017.4
20260502205049 12 344 0.0 0.0 0.00 0.00 0.00 37 1017.4
20260502204549 13 347 0.0 0.0 0.00 0.00 0.00 38 1017.3
20260502204046 12 19 0.0 0.0 0.00 0.00 0.00 36 1017.5
20260502203546 12 9 0.0 0.0 0.00 0.00 0.00 38 1017.5
20260502203046 12 350 0.0 0.0 0.00 0.00 0.00 35 1017.6
20260502202545 12 9 0.0 0.0 0.00 0.00 0.00 37 1017.7
20260502202046 12 322 0.0 1.6 0.00 0.00 0.00 37 1017.8
20260502201549 12 346 0.0 1.6 0.00 0.00 0.00 35 1017.8
20260502201044 13 344 0.0 0.0 0.00 0.00 0.00 39 1017.9
20260502200544 12 349 0.0 0.0 0.00 0.00 0.00 36 1017.9
20260502200059 12 10 0.0 0.0 0.00 0.00 0.00 35 1017.9
20260502195541 12 347 0.0 0.0 0.00 0.00 0.00 38 1018.0
20260502195041 12 347 0.0 0.0 0.00 0.00 0.00 38 1018.1
20260502194543 12 344 0.0 0.0 0.00 0.00 0.00 37 1018.2
20260502194041 12 47 0.0 0.0 0.00 0.00 0.00 37 1018.2
20260502193542 12 40 0.0 1.6 0.00 0.00 0.00 38 1018.3
20260502193044 11 40 0.0 1.6 0.00 0.00 0.00 39 1018.3
20260502192541 11 355 0.0 0.0 0.00 0.00 0.00 38 1018.4
20260502192041 11 13 0.0 0.0 0.00 0.00 0.00 37 1018.4
20260502191545 11 345 0.0 0.0 0.00 0.00 0.00 38 1018.4
20260502191043 11 345 0.0 0.0 0.00 0.00 0.00 38 1018.4
20260502190540 11 345 0.0 0.0 0.00 0.00 0.00 37 1018.4
20260502190047 11 304 0.0 0.0 0.00 0.00 0.00 37 1018.4
20260502185539 12 293 0.0 0.0 0.00 0.00 0.00 36 1018.5
20260502185039 12 348 0.0 1.6 0.00 0.00 0.00 37 1018.5
20260502184539 12 313 0.0 1.6 0.00 0.00 0.00 38 1018.5
20260502184039 12 338 0.0 0.0 0.00 0.00 0.00 40 1018.6
20260502183538 11 338 0.0 0.0 0.00 0.00 0.00 37 1018.5
20260502183038 11 5 0.0 1.6 0.00 0.00 0.00 41 1018.6
20260502182538 12 22 0.0 1.6 0.00 0.00 0.00 40 1018.6
20260502182037 12 9 0.0 0.0 0.00 0.00 0.00 43 1018.6
20260502181539 11 360 0.0 0.0 0.00 0.00 0.00 42 1018.7
20260502181037 11 355 0.0 0.0 0.00 0.00 0.00 43 1018.8
20260502180536 10 355 0.0 0.0 0.00 0.00 0.00 42 1018.8